Content
SEND FEEDBACK

Daily
Averages
Monthly
Summary
United States of America

KELDRON, SOUTH DAKOTA


Home > North America > United States > South Dakota
Elevation: 2565 feet     Latitude: 45 56N     Longitude: 102 10W

WEATHER
 
SELECT A DAY
Number of Records: 188,935;   Date Range: 7/1/96 - 7/29/14
 
SHARE

PRINT THIS DATA

[ ← Previous Day ]
WEATHER ALMANAC - FEBRUARY 13, 2013
[ Next Day → ]
[ °C ]   °F
Weather ElementAverageHighLow
Temperature36.8 °F46 °F (10:53 am)30.9 °F (11:53 pm)
Dewpoint26.4 °F32 °F (1:41 pm)19 °F (11:53 pm)
Humidity66.8 %87 % (1:41 pm)50 % (10:53 am)
Barometer29.76 in29.91 in (11:53 pm)29.62 in (9:03 am)
Wind Speed20.5 mph33.4 mph (9:36 am)
Wind Gust44.9 mph (10:53 am)
Weather ElementAverage
Visibility9.7 mi
Wind DirectionW (270.4 °)

Weather ElementTotal
Precipitation---
Heating Degree Days26.6 (Base 65)
Averaged from 28 records on February 13, 2013
WEATHER CONDITIONS BREAKOUT
WIND DIRECTION BREAKOUT
WEATHER BY HOUR - FEBRUARY 13, 2013
[ °C ]   °F
Local TimeTemperatureDewpointHumidityBarometerVisibilityWind DirectionWind SpeedGust SpeedPrecipitationEventsConditions
1:53 AM33.1 °F24.1 °F70 %29.81 in10.0 miWest (280°)6.9 mphOvercast
2:53 AM33.1 °F24.1 °F70 %29.77 in10.0 miWest (260°)10.4 mphOvercast
3:53 AM33.1 °F24.1 °F70 %29.75 in10.0 miWest (270°)9.2 mphScattered Clouds
4:53 AM34.0 °F23.0 °F64 %29.74 in10.0 miWest (260°)12.7 mphOvercast
5:53 AM35.1 °F23.0 °F61 %29.73 in10.0 miWest (260°)13.8 mphOvercast
6:53 AM36.0 °F27.0 °F70 %29.71 in10.0 miWest (280°)12.7 mphOvercast
7:53 AM37.0 °F24.1 °F59 %29.70 in10.0 miWest (280°)18.4 mph26.5 mphScattered Clouds
8:53 AM39.9 °F27.0 °F60 %29.68 in10.0 miWest (280°)19.6 mph35.7 mphOvercast
9:03 AM39.2 °F28.4 °F65 %29.62 in10.0 miWNW (290°)31.1 mph40.3 mphOvercast
9:36 AM41.0 °F28.4 °F61 %29.62 in10.0 miWNW (300°)33.4 mph42.6 mphPartly Cloudy
9:53 AM42.1 °F28.9 °F60 %29.67 in10.0 miWNW (290°)29.9 mph42.6 mphClear
10:53 AM46.0 °F28.0 °F50 %29.68 in10.0 miWNW (300°)32.2 mph44.9 mphPartly Cloudy
11:53 AM44.1 °F28.9 °F55 %29.69 in9.0 miWNW (300°)33.4 mph41.4 mphPartly Cloudy
12:53 PM43.0 °F28.9 °F58 %29.71 in10.0 miWNW (300°)29.9 mph39.1 mphClear
1:41 PM35.6 °F32.0 °F87 %29.70 in4.0 miNorth0.00 inSnowLight Snow
1:53 PM36.0 °F30.9 °F82 %29.75 in9.0 miNorth0.00 inOvercast
2:53 PM42.1 °F30.0 °F62 %29.74 in10.0 miWNW (300°)23.0 mph33.4 mphClear
3:53 PM41.0 °F28.0 °F60 %29.76 in10.0 miWNW (300°)24.2 mph36.8 mphClear
4:53 PM37.0 °F27.0 °F67 %29.79 in10.0 miWNW (300°)20.7 mph29.9 mphClear
5:53 PM36.0 °F27.0 °F70 %29.82 in10.0 miNW (310°)19.6 mph27.6 mphClear
6:53 PM35.1 °F26.1 °F70 %29.83 in10.0 miNW (310°)21.9 mph32.2 mphClear
7:46 PM33.8 °F26.6 °F75 %29.80 in10.0 miNW (310°)18.4 mphMostly Cloudy
7:53 PM34.0 °F26.1 °F73 %29.86 in10.0 miNW (310°)18.4 mph26.5 mphMostly Cloudy
8:11 PM33.8 °F26.6 °F75 %29.80 in10.0 miWNW (300°)16.1 mphScattered Clouds
8:53 PM33.1 °F26.1 °F75 %29.86 in10.0 miWNW (300°)18.4 mph25.3 mphClear
9:53 PM32.0 °F25.0 °F75 %29.88 in10.0 miWNW (290°)17.3 mphClear
10:53 PM32.0 °F21.9 °F66 %29.89 in10.0 miWNW (290°)23.0 mph32.2 mphScattered Clouds
11:53 PM30.9 °F19.0 °F61 %29.91 in10.0 miWNW (300°)19.6 mph28.8 mphClear
Hourly data recorded from KHEI, located miles away from Keldron, South Dakota







STORIES FROM OUR PARTNERS